Date,TemperatureHighF,TemperatureAvgF,TemperatureLowF,DewpointHighF,DewpointAvgF,DewpointLowF,HumidityHigh,HumidityAvg,HumidityLow,PressureMaxIn,PressureMinIn,WindSpeedMaxMPH,WindSpeedAvgMPH,GustSpeedMaxMPH,PrecipitationSumIn
2014-1-1,44.1,31.0,19.4,2.7,-7.2,-17.5,39,21,10,30.89,30.66,10,2,13,0.00
2014-1-2,30.6,26.8,21.4,22.8,12.3,1.8,79,55,31,30.67,30.23,21,3,29,0.00
2014-1-3,21.2,13.1,5.2,5.2,-26.8,-36.8,50,16,10,31.01,30.30,30,10,42,0.00
2014-1-4,34.3,18.9,3.4,-16.6,-22.6,-34.1,33,16,10,30.97,30.76,11,3,17,0.00
2014-1-5,43.9,27.3,13.3,38.0,4.8,-22.7,95,47,10,30.76,30.18,17,2,23,0.04
2014-1-6,44.6,26.7,-1.3,42.2,-5.0,-44.4,100,35,10,30.61,30.02,26,10,38,0.08
2014-1-7,12.4,2.1,-4.9,-34.1,-41.8,-47.3,10,10,10,30.92,30.59,18,8,30,0.00
2014-1-8,27.9,14.8,2.8,-19.8,-30.5,-40.7,23,11,10,31.05,30.91,9,2,13,0.00
2014-1-9,42.3,28.1,17.2,-6.5,-14.2,-19.9,27,16,10,31.13,30.99,9,3,14,0.00
2014-1-10,43.0,34.5,28.2,33.7,10.8,-18.7,90,41,11,31.02,30.65,11,2,15,0.01
2014-1-11,49.3,41.8,35.2,48.8,37.1,12.6,100,87,27,30.65,29.94,23,3,32,0.06
2014-1-12,46.0,38.1,28.0,13.9,5.2,-9.8,53,26,10,30.68,30.15,30,7,43,0.00
2014-1-13,55.2,39.6,25.2,31.5,8.4,-6.6,72,35,10,30.63,30.42,9,2,108,0.01
2014-1-14,52.2,41.7,29.7,47.9,28.5,11.5,90,62,27,30.48,30.24,7,1,13,0.06
2014-1-15,42.4,33.5,27.0,30.9,15.0,-17.8,82,54,11,30.60,30.42,14,2,22,0.00
2014-1-16,46.6,31.4,23.4,-6.4,-15.7,-23.4,22,12,10,30.57,30.41,15,4,20,0.00
2014-1-17,54.3,36.8,26.4,14.4,-5.4,-14.2,46,17,10,30.47,30.39,14,2,21,0.00
2014-1-18,32.5,21.2,12.4,19.9,-17.4,-30.8,72,21,10,30.55,30.40,22,6,33,0.00
2014-1-19,40.1,26.7,15.1,-0.7,-9.1,-21.1,45,23,10,30.44,30.24,17,4,27,0.00
2014-1-20,43.5,36.0,27.0,9.6,-6.9,-18.3,36,16,10,30.50,30.19,20,6,32,0.00
2014-1-21,33.4,21.1,7.2,18.1,-1.9,-37.8,74,41,10,30.53,30.37,23,6,29,0.00
2014-1-22,19.2,6.9,-1.8,-28.3,-36.6,-43.0,17,11,10,30.63,30.46,17,6,24,0.00
2014-1-23,19.8,9.0,0.1,-7.3,-30.2,-39.0,34,15,10,30.95,30.57,17,5,25,0.00
2014-1-24,21.7,11.6,1.4,-26.3,-34.2,-42.1,12,10,10,30.98,30.48,11,4,18,0.00
2014-1-25,31.8,23.9,13.5,-18.5,-24.7,-33.4,10,10,10,30.48,29.98,13,4,19,0.00
2014-1-26,30.4,30.4,30.4,-19.6,-19.6,-19.6,10,10,10,29.98,29.98,5,5,14,0.00
2014-1-27,30.4,29.0,9.0,-19.6,-20.7,-36.5,10,10,10,30.73,29.98,14,6,21,0.00
2014-1-28,15.3,7.1,-0.9,-31.4,-37.8,-44.1,10,10,10,30.97,30.72,21,4,27,0.00
2014-1-29,22.8,11.6,1.4,-25.5,-34.3,-42.3,10,10,10,30.84,30.70,15,4,23,0.00
2014-1-30,34.0,18.6,1.8,-16.8,-27.9,-41.2,16,11,10,30.92,30.61,14,4,24,0.00
2014-1-31,45.3,32.4,20.8,-8.0,-18.0,-27.0,10,10,10,30.77,30.59,8,2,14,0.00
2014-2-1,50.9,38.0,28.4,-2.7,-10.9,-20.8,25,12,10,30.81,30.52,14,4,21,0.00
2014-2-2,52.2,41.2,32.2,31.3,4.1,-18.2,68,26,10,30.66,30.47,18,2,30,0.00
2014-2-3,36.5,32.6,26.4,30.6,23.4,5.4,88,70,36,30.87,30.59,8,0,11,0.08
2014-2-4,33.4,24.5,13.8,16.1,2.2,-14.8,68,42,12,30.97,30.70,4,0,6,0.01
2014-2-5,38.3,30.6,24.4,30.8,17.7,-7.4,88,64,21,30.71,30.25,34,5,43,0.19
2014-2-6,35.6,26.1,20.5,-4.2,-17.1,-24.8,27,14,10,30.86,30.68,26,6,34,0.00
2014-2-7,36.9,26.7,18.1,-11.8,-19.6,-28.3,19,12,10,30.85,30.77,16,4,24,0.00
2014-2-8,35.2,21.6,14.2,-12.8,-21.2,-29.7,24,14,10,30.86,30.71,9,1,12,0.00
2014-2-9,27.5,23.2,16.2,14.2,-2.8,-17.5,66,33,19,30.72,30.50,23,2,30,0.00
2014-2-10,29.1,19.6,7.7,-12.9,-25.1,-32.4,26,12,10,30.84,30.60,19,5,27,0.00
2014-2-11,34.0,17.4,4.5,-13.4,-23.1,-34.5,35,16,10,30.98,30.82,12,2,15,0.00
2014-2-12,26.4,13.9,-0.6,4.0,-22.5,-36.2,57,21,10,31.01,30.72,11,2,17,0.00
2014-2-13,34.2,23.7,15.6,29.9,14.9,4.0,91,70,37,30.72,29.97,30,11,104,0.00
2014-2-14,44.1,35.4,28.8,21.3,-10.5,-20.6,62,14,10,30.30,29.98,24,7,40,0.00
2014-2-15,32.5,28.9,21.2,26.5,9.8,-26.7,86,57,10,30.54,30.20,29,6,38,0.00
2014-2-16,31.8,23.3,16.9,11.7,-16.8,-30.3,59,18,10,30.72,30.51,22,4,30,0.00
2014-2-17,41.5,23.6,6.1,6.1,-20.9,-30.0,49,13,10,30.95,30.66,27,5,36,0.00
2014-2-18,52.0,35.0,22.3,15.9,-0.7,-17.2,70,29,10,30.66,30.50,182,6,182,0.00
2014-2-19,56.7,41.9,29.7,27.5,-2.0,-17.9,69,19,10,30.70,30.25,26,5,40,0.13
2014-2-20,52.2,39.7,24.1,18.0,-1.2,-11.2,62,23,10,30.76,30.45,14,4,24,0.00
2014-2-21,56.7,46.7,40.3,39.8,5.3,-9.8,81,22,10,30.54,30.23,16,4,25,0.07
2014-2-22,59.5,44.2,29.1,2.5,-8.5,-19.3,15,10,10,30.60,30.53,17,4,28,0.00
2014-2-23,56.5,41.6,29.7,18.5,-1.7,-17.1,41,18,10,30.58,30.46,20,5,27,0.01
2014-2-24,36.0,30.7,24.6,8.1,-17.5,-24.1,32,11,10,30.66,30.49,24,9,34,0.00
2014-2-25,34.3,26.1,19.9,-15.6,-22.6,-27.7,14,10,10,30.63,30.50,18,5,33,0.00
2014-2-26,27.3,22.3,11.5,12.1,-19.2,-33.8,61,16,10,30.52,30.35,26,6,38,0.00
2014-2-27,29.3,17.8,8.2,-20.7,-27.3,-36.9,21,12,10,30.67,30.22,31,10,50,0.00
2014-2-28,37.2,15.5,-1.3,-14.4,-31.0,-44.4,13,10,10,30.90,30.66,17,3,23,0.00
2014-3-1,46.8,28.4,14.2,-3.2,-20.9,-32.4,21,10,10,30.84,30.66,9,2,14,0.00
2014-3-2,39.0,34.0,25.5,28.0,2.4,-17.6,79,31,10,30.66,30.55,11,2,17,0.12
2014-3-3,25.5,15.9,7.0,12.1,-25.2,-37.5,62,17,10,30.85,30.56,12,1,16,0.00
2014-3-4,43.7,20.5,5.5,-9.3,-24.2,-37.2,22,12,10,30.91,30.73,8,2,14,0.00
2014-3-5,44.2,29.0,14.4,-9.1,-18.1,-30.3,21,12,10,30.98,30.69,14,3,21,0.00
2014-3-6,43.7,26.1,15.4,-9.3,-22.9,-31.3,10,10,10,31.07,30.89,11,4,23,0.00
2014-3-7,50.2,32.4,25.2,8.6,-11.2,-23.7,47,16,10,30.89,30.50,8,2,12,0.00
2014-3-8,63.0,41.3,23.5,22.7,4.3,-8.1,70,29,10,30.52,30.43,16,4,28,0.00
2014-3-9,43.5,36.4,29.8,14.5,-9.4,-19.4,36,14,10,30.70,30.49,21,8,28,0.00
2014-3-10,67.1,49.6,36.3,8.8,-4.7,-15.0,10,10,10,30.52,30.17,13,4,22,0.00
2014-3-11,74.3,58.5,45.9,14.3,3.1,-4.0,23,11,10,30.25,30.15,12,4,20,0.00
2014-3-12,58.3,44.1,24.6,49.7,16.8,-20.1,88,37,10,30.18,29.60,30,6,45,0.41
2014-3-13,31.5,21.5,11.3,-17.7,-26.0,-34.5,15,10,10,30.67,30.10,33,14,46,0.00
2014-3-14,61.9,41.3,20.3,4.6,-11.2,-27.5,10,10,10,30.69,30.36,17,4,28,0.00
2014-3-15,57.6,51.0,39.6,13.0,-2.7,-12.5,24,11,10,30.63,30.32,26,9,34,0.00
2014-3-16,39.6,33.2,24.4,2.0,-13.7,-22.3,37,13,10,30.73,30.60,17,5,25,0.00
2014-3-17,35.4,26.1,20.5,11.8,-3.2,-20.7,67,34,10,30.62,30.54,11,3,14,0.04
2014-3-18,46.2,35.9,27.9,3.2,-8.6,-19.2,34,16,10,30.77,30.59,12,3,18,0.01
2014-3-19,40.5,37.0,32.9,36.3,16.3,-15.1,91,55,10,30.74,30.41,14,4,22,0.02
2014-3-20,49.5,43.0,37.2,38.5,0.7,-13.2,94,24,10,30.58,30.36,23,8,36,0.01
2014-3-21,54.7,41.7,34.7,14.2,-3.8,-14.1,37,15,10,30.62,30.53,17,5,24,0.00
2014-3-22,62.4,49.7,35.4,15.9,2.6,-12.2,38,16,10,30.64,30.36,30,7,40,0.00
2014-3-23,43.5,35.4,24.1,3.7,-12.4,-24.5,29,12,10,30.75,30.58,25,8,35,0.00
2014-3-24,37.6,26.2,17.6,-14.0,-22.8,-29.6,10,10,10,30.82,30.63,18,6,27,0.00
2014-3-25,35.6,27.5,21.6,15.7,-2.9,-25.3,60,31,10,30.65,30.42,5,1,8,0.05
2014-3-26,33.6,26.2,21.0,14.7,-19.1,-25.9,68,15,10,30.82,30.43,30,13,42,0.01
2014-3-27,49.5,33.4,14.4,-4.8,-13.8,-30.1,30,13,10,30.89,30.63,16,4,30,0.00
2014-3-28,66.6,53.4,40.8,23.8,8.2,-10.5,36,17,10,30.65,30.48,14,4,21,0.04
2014-3-29,54.7,46.2,42.4,43.9,31.2,13.3,100,61,19,30.68,30.16,21,4,29,0.70
2014-3-30,45.5,39.6,30.4,43.9,24.3,4.7,100,60,21,30.44,30.16,35,14,56,0.58
2014-3-31,65.7,49.1,36.3,7.7,-0.1,-11.6,23,13,10,30.70,30.44,27,9,37,0.00
2014-4-1,72.3,49.8,32.0,12.6,0.1,-14.0,29,13,10,30.71,30.49,11,2,17,0.00
2014-4-2,63.3,54.7,45.3,38.8,13.5,-5.4,64,23,10,30.69,30.54,15,3,21,0.02
2014-4-3,63.7,53.6,47.8,37.4,14.4,-3.1,66,26,10,30.68,30.51,10,2,20,0.02
2014-4-4,52.0,48.0,44.6,46.1,32.2,16.3,97,56,28,30.50,30.25,14,4,25,0.09
2014-4-5,50.5,43.5,34.2,44.8,2.0,-12.9,100,23,10,30.73,30.30,21,8,32,0.01
2014-4-6,67.5,44.6,24.8,8.6,-1.7,-12.3,41,16,10,30.80,30.66,10,3,15,0.00
2014-4-7,48.7,42.4,37.8,45.4,19.5,-10.8,100,55,10,30.69,30.14,13,3,22,0.39
2014-4-8,61.9,48.9,38.7,47.0,23.0,-4.0,100,50,10,30.30,30.03,24,5,34,0.01
2014-4-9,63.5,48.9,33.3,20.1,6.3,-11.1,53,22,10,30.62,30.27,23,6,34,0.00
2014-4-10,74.3,54.7,32.4,14.1,2.6,-14.6,28,12,10,30.74,30.51,18,5,27,0.00
2014-4-11,73.6,57.9,47.3,53.4,20.9,-1.8,97,37,10,30.63,30.52,20,3,27,0.18
2014-4-12,80.1,60.0,38.5,48.8,24.2,5.4,100,44,10,30.82,30.63,15,4,26,0.01
2014-4-13,88.3,72.1,55.2,35.1,22.1,5.4,45,18,10,30.65,30.46,18,6,27,0.00
2014-4-14,76.1,69.6,63.9,37.3,22.7,11.4,35,18,10,30.47,30.22,19,7,34,0.01
2014-4-15,68.4,49.7,31.1,61.8,30.2,-19.2,100,54,10,30.62,29.99,34,11,46,0.66
2014-4-16,51.3,36.2,25.7,-3.6,-15.1,-23.2,10,10,10,31.05,30.62,31,8,41,0.00
2014-4-17,62.4,45.0,31.6,5.0,-7.5,-18.7,21,10,10,31.16,31.03,17,6,24,0.00
2014-4-18,64.8,46.2,34.9,21.0,7.6,-5.1,56,25,10,31.09,30.80,11,3,16,0.00
2014-4-19,69.1,53.7,36.1,29.0,10.2,-2.6,65,23,10,30.89,30.78,16,4,24,0.00
2014-4-20,75.6,57.5,40.6,15.1,1.4,-11.1,12,10,10,30.97,30.85,16,4,23,0.00
2014-4-21,81.1,58.2,36.0,19.5,7.5,-5.1,43,15,10,30.85,30.43,12,3,21,0.00
2014-4-22,73.4,57.5,49.1,48.4,16.6,-3.3,72,24,10,30.44,30.18,31,5,48,0.15
2014-4-23,52.2,45.9,42.8,12.2,1.5,-9.7,26,16,10,30.57,30.30,30,13,44,0.00
2014-4-24,68.2,49.4,28.9,9.6,-3.2,-16.4,28,11,10,30.70,30.56,18,5,28,0.00
2014-4-25,67.5,53.5,45.0,49.8,15.3,-8.3,94,33,10,30.58,30.26,24,4,34,0.48
2014-4-26,73.8,59.5,45.3,45.7,13.5,-4.7,78,20,10,30.51,30.30,30,11,41,0.01
2014-4-27,74.1,52.6,32.9,17.5,4.0,-7.7,46,16,10,30.68,30.52,14,4,24,0.00
2014-4-28,66.4,52.5,44.8,46.2,11.5,-7.3,92,28,10,30.69,30.54,13,3,22,0.24
2014-4-29,55.0,46.4,39.7,46.5,42.1,34.4,94,85,76,30.77,30.58,19,6,33,0.93
2014-4-30,54.3,48.8,44.2,53.3,45.2,39.0,99,88,74,30.76,30.12,15,3,25,0.14
2014-5-1,73.8,59.9,48.9,58.9,30.2,-0.2,99,50,10,30.45,30.34,18,4,25,0.01
2014-5-2,60.8,52.6,42.8,23.2,9.4,-1.8,42,20,10,30.47,30.39,17,4,22,0.00
2014-5-3,65.5,49.3,40.1,37.1,20.9,2.7,70,42,10,30.48,30.39,12,2,19,0.00
2014-5-4,66.7,58.2,46.9,38.5,4.9,-4.7,71,13,10,30.54,30.34,24,9,37,0.00
2014-5-5,75.6,54.5,36.0,21.2,6.9,-6.7,51,17,10,30.65,30.48,14,4,19,0.00
2014-5-6,79.0,60.1,42.6,35.5,16.0,-2.7,63,24,10,30.64,30.47,15,3,22,0.00
2014-5-7,70.0,56.6,46.4,40.4,15.6,-4.8,69,24,10,30.83,30.64,11,2,18,0.18
2014-5-8,94.1,67.4,46.8,52.1,36.1,16.6,95,45,10,30.74,30.58,11,2,16,0.00
2014-5-9,88.7,71.6,57.9,60.8,44.2,22.2,96,46,10,30.66,30.41,16,3,24,0.00
2014-5-10,77.4,68.5,57.4,58.5,43.9,20.3,100,48,13,30.50,30.41,14,3,23,0.25
2014-5-11,81.9,66.1,50.9,62.2,31.8,6.7,100,45,10,30.62,30.50,16,3,21,0.00
2014-5-12,86.2,68.9,53.1,59.3,37.2,16.6,82,40,10,30.63,30.54,11,2,19,0.00
2014-5-13,95.7,74.3,61.2,67.9,51.7,24.5,99,61,10,30.66,30.54,11,2,17,0.43
2014-5-14,70.7,64.6,60.8,63.2,55.6,44.4,100,74,42,30.70,30.60,13,3,20,0.00
2014-5-15,80.6,68.3,62.1,69.0,58.5,42.0,100,78,27,30.64,30.37,17,4,29,0.51
2014-5-16,70.2,58.2,49.1,69.9,31.4,4.1,100,48,10,30.43,30.32,15,6,24,1.84
2014-5-17,65.5,53.7,42.8,40.7,16.3,-1.6,79,31,10,30.72,30.44,12,3,19,0.00
2014-5-18,67.3,46.5,37.9,37.3,21.4,-1.6,81,44,10,30.82,30.72,11,2,14,0.00
2014-5-19,76.8,56.1,36.0,34.4,16.3,1.7,77,29,10,30.89,30.74,8,2,15,0.00
2014-5-20,85.3,60.6,42.6,40.8,20.5,6.3,72,29,10,30.80,30.58,8,2,15,0.00
2014-5-21,75.6,64.0,56.5,60.5,44.0,20.8,100,53,21,30.58,30.37,10,2,54,0.07
2014-5-22,85.1,70.1,57.7,70.3,40.8,9.3,99,50,10,30.47,30.27,21,6,29,0.53
2014-5-23,72.1,60.8,47.1,51.3,24.8,4.2,90,33,10,30.55,30.41,24,6,35,0.00
2014-5-24,77.7,60.7,44.2,46.9,31.8,11.2,84,42,10,30.63,30.51,15,4,22,0.00
2014-5-25,87.4,65.9,46.8,54.1,31.8,11.2,100,43,10,30.67,30.55,9,2,13,0.01
2014-5-26,96.8,70.2,50.5,51.8,31.3,13.3,85,34,10,30.62,30.48,11,2,14,0.00
2014-5-27,88.9,69.1,57.9,69.1,53.2,24.1,100,65,10,30.51,30.37,33,2,56,1.36
2014-5-28,83.7,72.1,63.3,72.4,59.7,45.3,99,70,27,30.54,30.35,11,2,18,0.04
2014-5-29,64.9,57.2,55.2,61.3,55.0,50.0,100,92,73,30.63,30.54,12,2,18,0.40
2014-5-30,84.4,63.5,55.0,56.8,43.2,14.9,99,62,10,30.62,30.54,11,2,16,0.02
2014-5-31,87.1,67.0,50.4,58.5,29.5,-1.1,100,41,10,30.74,30.61,14,3,21,0.01
2014-6-1,84.0,67.8,51.4,47.8,27.5,12.6,78,28,10,30.81,30.69,12,3,19,0.00
2014-6-2,85.6,69.0,54.0,60.8,43.7,19.7,89,46,10,30.76,30.55,8,2,14,0.00
2014-6-3,91.4,73.0,60.1,68.9,55.3,29.3,100,62,12,30.56,30.37,9,2,17,0.08
2014-6-4,88.7,72.8,61.0,64.8,44.7,19.6,97,48,10,30.42,30.26,9,2,13,0.09
2014-6-5,77.4,65.4,55.0,62.3,38.4,12.3,100,51,10,30.43,30.18,17,6,24,0.22
2014-6-6,84.7,64.1,46.8,47.5,29.0,7.5,85,38,10,30.54,30.40,12,3,18,0.00
2014-6-7,94.5,69.5,50.5,55.1,35.2,15.1,96,42,10,30.57,30.48,8,2,11,0.01
2014-6-8,86.2,68.3,56.5,69.2,53.0,28.6,99,67,13,30.52,30.34,11,2,20,0.00
2014-6-9,85.3,73.2,65.3,67.2,55.1,31.2,99,61,15,30.46,30.36,9,2,14,0.00
2014-6-10,96.1,75.3,63.5,69.2,54.1,24.1,100,59,10,30.51,30.42,8,2,11,0.00
2014-6-11,86.7,72.9,64.4,71.6,62.5,48.1,100,75,30,30.56,30.41,20,4,31,0.01
2014-6-12,79.7,69.7,66.2,74.6,67.9,59.8,100,94,53,30.53,30.39,13,3,19,0.00
2014-6-13,86.4,72.4,63.3,72.2,58.3,22.2,100,72,10,30.48,30.30,27,2,35,0.00
2014-6-14,72.7,63.2,53.2,56.9,35.6,11.6,85,43,10,30.68,30.48,15,5,22,0.00
2014-6-15,93.0,68.0,48.2,56.6,37.2,16.9,100,48,10,30.72,30.60,9,1,18,0.00
2014-6-16,96.3,73.7,57.0,74.6,52.0,21.4,100,61,10,30.67,30.59,18,1,27,0.02
2014-6-17,96.4,80.8,64.4,74.8,53.7,26.7,100,53,10,30.68,30.51,8,2,14,0.00
2014-6-18,94.5,80.4,67.5,70.2,47.6,25.1,90,38,10,30.60,30.53,21,3,33,0.00
2014-6-19,80.4,70.7,61.9,71.8,63.8,50.4,100,81,37,30.65,30.51,30,2,47,0.02
2014-6-20,93.7,71.7,59.4,65.8,42.0,12.2,99,51,10,30.66,30.49,10,1,11,0.00
2014-6-21,70.9,63.9,57.4,59.9,51.5,25.2,100,66,20,30.56,30.45,10,2,13,0.01
2014-6-22,92.8,70.0,54.5,66.3,45.8,21.0,100,58,10,30.60,30.48,9,1,11,0.00
2014-6-23,86.7,72.8,59.9,67.7,47.9,21.5,100,52,10,30.70,30.58,13,2,19,0.00
2014-6-24,91.8,76.7,62.8,62.9,51.0,36.6,74,44,17,30.69,30.55,11,3,18,0.00
2014-6-25,92.3,79.8,69.1,75.1,58.3,35.9,97,55,14,30.58,30.40,14,2,21,0.07
2014-6-26,91.0,77.0,68.0,74.5,59.4,43.6,100,62,20,30.54,30.39,9,2,14,0.08
2014-6-27,88.7,73.9,61.0,65.9,48.3,24.8,99,52,11,30.66,30.49,10,2,15,0.00
2014-6-28,94.5,78.4,66.6,68.0,48.9,25.1,92,49,10,30.82,30.63,8,3,14,0.01
2014-6-29,90.5,77.8,66.2,59.7,39.2,21.3,73,31,10,30.82,30.74,11,3,15,0.00
2014-6-30,89.1,76.5,65.3,59.1,37.3,21.3,67,30,10,30.74,30.57,11,2,15,0.00
2014-7-1,93.4,80.1,68.7,72.3,56.0,35.2,100,53,13,30.56,30.40,8,2,11,0.00
2014-7-2,97.9,87.0,71.1,76.5,53.1,30.0,99,39,10,30.60,30.38,11,2,17,0.01
2014-7-3,94.1,76.3,66.6,75.9,63.6,31.7,100,74,12,30.64,30.52,13,1,17,0.06
2014-7-4,77.7,68.9,58.6,64.6,31.7,7.9,86,34,10,30.82,30.63,24,7,37,0.00
2014-7-5,88.3,67.8,49.6,49.8,31.0,12.1,86,36,10,30.87,30.74,11,2,17,0.00
2014-7-6,90.9,71.7,54.1,55.5,33.8,16.6,86,36,10,30.75,30.56,9,2,17,0.00
2014-7-7,92.1,80.5,66.7,49.2,33.9,21.8,52,23,10,30.56,30.38,13,3,23,0.00
2014-7-8,95.0,78.3,68.0,65.4,46.8,28.5,88,39,10,30.47,30.31,21,3,47,0.13
2014-7-9,90.0,76.4,65.3,72.7,47.3,19.1,100,50,10,30.60,30.44,11,2,18,0.00
2014-7-10,95.2,73.2,59.4,64.0,46.8,21.8,100,51,10,30.76,30.58,9,2,15,0.09
2014-7-11,96.8,74.8,58.5,64.3,46.6,23.0,100,50,10,30.82,30.74,6,1,11,0.00
2014-7-12,92.8,72.8,63.3,69.4,55.5,24.4,100,65,10,30.82,30.77,8,1,11,0.00
2014-7-13,91.8,80.8,68.4,71.6,55.6,33.3,94,48,13,30.70,30.50,10,2,17,0.07
2014-7-14,86.0,74.2,67.8,74.7,65.1,49.0,100,78,30,30.57,30.46,11,1,18,0.30
2014-7-15,86.4,73.9,63.9,75.3,61.9,30.7,99,73,16,30.48,30.38,11,1,17,0.04
2014-7-16,80.6,68.0,55.9,59.5,36.0,13.7,91,44,10,30.60,30.43,11,3,18,0.00
2014-7-17,74.3,67.7,52.7,56.4,27.8,11.6,88,33,10,30.67,30.56,10,4,15,0.00
2014-7-18,74.3,74.3,74.3,14.3,14.3,14.3,10,10,10,30.66,30.66,5,5,14,0.00
2014-7-19,74.3,74.3,74.3,14.3,14.3,14.3,10,10,10,30.66,30.66,5,5,14,0.00
2014-7-20,74.3,74.3,74.3,14.3,14.3,14.3,10,10,10,30.66,30.66,5,5,14,0.00
2014-7-21,74.3,74.3,74.3,14.3,14.3,14.3,10,10,10,30.66,30.66,5,5,14,0.00
2014-7-22,74.3,74.3,74.3,14.3,14.3,14.3,10,10,10,30.66,30.66,5,5,14,0.00
2014-7-23,74.3,74.3,74.3,14.3,14.3,14.3,10,10,10,30.66,30.66,5,5,14,0.00
2014-7-24,74.3,74.3,74.3,14.3,14.3,14.3,10,10,10,30.66,30.66,5,5,14,0.00
2014-7-25,74.3,74.3,74.3,14.3,14.3,14.3,10,10,10,30.66,30.66,5,5,14,0.00
2014-7-26,74.3,74.3,74.3,14.3,14.3,14.3,10,10,10,30.66,30.66,5,5,14,0.00
2014-7-27,92.7,79.2,68.4,67.5,35.5,14.3,94,27,10,30.66,30.25,9,4,16,0.30
2014-7-28,77.5,69.1,64.9,67.4,49.8,27.4,100,57,16,30.51,30.18,14,5,23,0.07
2014-7-29,76.5,62.6,52.3,43.4,29.1,9.4,70,32,10,30.63,30.47,13,3,18,0.00
2014-7-30,87.1,65.4,47.7,57.0,35.3,14.4,94,48,10,30.68,30.57,9,1,14,0.07
2014-7-31,90.7,70.6,55.0,61.8,42.5,19.3,100,51,10,30.73,30.63,10,1,16,0.00
2014-8-1,84.2,70.6,59.0,64.1,49.6,25.9,100,56,13,30.78,30.70,11,1,15,0.00
2014-8-2,91.8,74.4,60.8,61.7,44.9,21.9,89,46,10,30.76,30.64,10,2,17,0.00
2014-8-3,93.2,73.7,61.2,68.5,52.5,22.5,100,56,10,30.70,30.62,12,2,22,0.02
2014-8-4,93.0,72.5,56.5,65.2,44.5,20.4,100,52,10,30.74,30.66,13,2,17,0.01
2014-8-5,99.1,75.3,59.5,62.4,44.2,21.1,97,48,10,30.70,30.54,9,2,17,0.13
2014-8-6,86.0,69.6,58.1,65.0,48.1,20.2,100,58,10,30.62,30.55,13,2,21,0.00
2014-8-7,83.5,69.9,57.0,60.3,36.6,14.9,96,43,10,30.69,30.59,16,3,24,0.00
2014-8-8,89.8,69.9,54.0,54.6,35.3,16.0,89,40,10,30.76,30.69,9,2,14,0.00
2014-8-9,92.1,74.0,59.9,49.2,37.0,22.2,67,32,10,30.76,30.69,11,2,16,0.00
2014-8-10,92.5,76.5,60.1,62.2,41.2,21.3,95,39,10,30.76,30.68,10,2,15,0.00
2014-8-11,83.1,70.7,63.3,65.0,46.4,17.0,100,54,10,30.75,30.60,14,3,23,0.33
2014-8-12,77.7,66.2,63.5,70.9,65.2,60.8,100,96,69,30.60,29.90,18,2,27,0.95
2014-8-13,79.5,69.2,57.4,69.9,49.3,25.1,99,58,16,30.03,29.86,14,4,23,0.01
2014-8-14,79.9,65.1,49.5,55.1,31.0,8.2,91,38,10,30.08,29.94,14,3,21,0.00
2014-8-15,77.4,62.3,46.8,44.3,25.2,9.4,79,33,10,30.09,30.02,13,3,18,0.00
2014-8-16,89.1,66.1,46.2,49.3,31.5,14.0,89,40,10,30.13,29.99,10,2,15,0.00
2014-8-17,86.5,72.2,59.5,55.1,37.4,16.9,61,34,10,30.08,29.97,14,3,19,0.00
2014-8-18,85.8,65.3,58.6,58.5,48.9,19.6,91,63,10,30.05,29.97,6,1,9,0.00
2014-8-19,87.4,75.8,64.2,63.7,52.4,37.3,90,49,17,30.01,29.90,7,2,10,0.00
2014-8-20,86.9,73.7,65.8,75.6,62.2,47.9,100,70,29,30.10,29.97,10,2,14,0.65
2014-8-21,93.2,74.4,64.0,72.2,59.3,30.8,100,67,12,30.14,30.06,7,1,11,0.11
2014-8-22,84.4,72.4,63.0,70.3,61.3,45.6,100,73,26,30.11,30.04,5,1,8,0.01
2014-8-23,73.9,68.7,64.6,68.2,62.7,53.6,100,82,54,30.19,30.04,13,2,20,1.26
2014-8-24,85.5,70.1,59.0,64.2,46.0,20.3,100,55,10,30.26,30.18,9,2,15,0.02
2014-8-25,91.2,70.1,54.5,59.0,41.1,20.6,95,50,10,30.28,30.21,8,1,13,0.00
2014-8-26,93.6,71.2,53.6,55.4,40.0,19.7,93,47,10,30.27,30.17,9,2,13,0.01
2014-8-27,99.9,74.9,57.7,66.2,49.0,24.0,92,52,10,30.20,30.01,7,1,12,0.00
2014-8-28,79.5,70.5,56.7,64.0,36.2,11.5,73,37,10,30.21,30.03,17,5,24,0.00
2014-8-29,88.0,68.2,50.0,46.7,31.8,12.6,83,37,10,30.30,30.20,8,2,13,0.00
2014-8-30,87.3,74.3,61.9,66.9,45.2,27.9,78,38,19,30.30,30.19,12,3,21,0.00
2014-8-31,88.0,76.0,68.5,73.3,59.8,34.2,100,64,16,30.22,30.11,11,1,20,0.00
2014-9-1,94.8,77.4,68.2,71.6,59.2,26.9,96,62,10,30.13,30.04,11,1,15,0.20
2014-9-2,95.7,80.2,67.6,65.8,49.7,27.1,87,42,10,30.11,29.94,11,2,19,0.00
2014-9-3,95.2,75.6,65.3,65.2,46.8,20.6,93,47,10,30.27,30.06,9,2,16,0.00
2014-9-4,92.1,77.1,63.3,67.2,52.4,31.6,96,51,12,30.26,30.17,14,2,21,0.00
2014-9-5,98.6,79.9,68.0,72.4,54.7,28.9,100,54,10,30.28,30.17,14,2,23,0.04
2014-9-6,96.6,76.2,65.5,72.4,58.3,25.4,100,64,10,30.17,30.00,18,3,50,0.24
2014-9-7,81.9,67.1,56.1,52.5,34.4,11.5,77,39,10,30.29,30.13,15,3,21,0.00
2014-9-8,82.8,65.7,52.0,52.8,38.4,17.8,84,45,10,30.34,30.27,14,4,26,0.02
2014-9-9,74.1,66.8,62.4,57.1,51.1,40.0,76,58,39,30.32,30.20,8,1,12,0.00
2014-9-10,85.1,71.0,65.3,59.5,53.6,36.4,76,57,19,30.21,30.03,12,3,19,0.00
2014-9-11,83.8,73.0,62.6,60.9,52.2,33.6,74,51,19,30.17,29.94,16,3,24,0.00
2014-9-12,79.5,65.1,57.6,45.3,31.3,11.9,63,34,10,30.26,30.15,14,5,21,0.00
2014-9-13,75.9,61.5,51.4,57.6,34.7,16.2,89,41,11,30.32,30.17,17,4,21,0.45
2014-9-14,72.3,54.9,41.7,43.4,27.4,5.4,84,45,10,30.36,30.22,11,2,15,0.01
2014-9-15,80.2,59.5,42.8,45.6,31.4,11.6,85,46,10,30.27,30.09,8,1,13,0.01
2014-9-16,71.4,61.0,48.9,53.9,34.9,9.7,82,46,10,30.13,30.03,12,3,19,0.00
2014-9-17,86.0,60.5,43.3,45.6,29.4,9.2,85,43,10,30.13,29.98,9,1,14,0.04
2014-9-18,79.3,61.5,48.4,49.3,29.3,7.9,85,41,10,30.18,30.01,13,2,18,0.00
2014-9-19,78.1,62.4,49.1,45.6,30.5,10.9,71,38,10,30.30,30.17,13,4,20,0.00
2014-9-20,86.4,70.9,62.6,51.7,37.0,17.3,67,37,10,30.32,30.09,12,4,23,0.00
2014-9-21,88.7,70.7,54.9,52.7,34.3,7.8,82,34,10,30.13,29.71,17,3,23,0.01
2014-9-22,65.8,59.6,51.8,32.2,16.9,3.6,39,21,10,30.30,29.85,21,8,34,0.00
2014-9-23,82.8,57.2,37.6,34.3,20.7,5.0,73,32,10,30.40,30.28,10,2,14,0.00
2014-9-24,75.0,60.4,45.0,42.8,27.9,9.7,79,37,10,30.49,30.40,12,2,21,0.01
2014-9-25,72.1,60.7,55.8,52.8,48.4,34.0,88,66,33,30.42,30.28,16,5,22,0.25
2014-9-26,79.5,62.2,52.2,58.2,38.6,13.4,95,54,10,30.31,30.22,14,2,17,0.00
2014-9-27,92.8,65.8,49.3,51.6,35.5,14.1,91,45,10,30.33,30.22,8,1,11,0.01
2014-9-28,87.3,65.3,50.0,49.5,36.8,16.3,86,47,10,30.26,30.09,6,1,8,0.00
2014-9-29,79.9,66.0,56.5,60.0,43.5,17.0,89,53,10,30.10,29.94,4,1,6,0.00
2014-9-30,83.5,64.3,53.8,62.1,49.0,22.5,100,67,11,30.01,29.87,20,2,27,0.83
2014-10-1,78.3,62.8,54.3,61.4,51.4,31.9,99,73,19,30.13,29.99,8,1,11,0.00
2014-10-2,83.1,62.7,51.6,61.9,47.0,17.7,100,66,10,30.19,30.08,8,1,13,0.01
2014-10-3,68.0,63.4,60.6,63.2,54.8,47.3,93,74,54,30.15,29.72,19,5,30,0.00
2014-10-4,65.8,55.8,36.5,63.8,22.1,-8.6,96,37,10,29.85,29.65,15,4,24,0.01
2014-10-5,63.7,47.5,35.4,28.6,10.7,-3.3,55,28,10,29.97,29.82,13,3,21,0.00
2014-10-6,75.6,55.7,36.9,51.6,25.9,2.0,83,44,10,29.97,29.83,17,3,27,0.40
2014-10-7,72.3,59.3,50.2,55.0,42.8,10.5,88,62,10,30.02,29.83,11,2,20,0.28
2014-10-8,73.2,59.9,49.1,56.9,29.8,2.5,100,46,10,30.01,29.85,14,4,25,0.01
2014-10-9,70.0,56.2,39.6,32.3,12.3,-2.2,63,22,10,30.16,30.01,11,3,20,0.00
2014-10-10,59.4,51.8,44.4,48.2,39.0,26.1,87,64,32,30.17,30.11,4,1,7,0.19
2014-10-11,65.8,53.5,50.4,50.0,43.5,24.2,96,73,22,30.22,30.04,9,2,12,0.28
2014-10-12,69.1,54.2,42.4,36.1,21.6,-0.4,71,34,10,30.36,30.22,11,2,17,0.00
2014-10-13,66.0,58.4,54.0,59.9,48.4,27.3,93,71,35,30.30,30.21,10,2,18,0.00
2014-10-14,76.8,68.8,62.4,67.7,60.7,49.5,100,78,40,30.21,29.99,22,8,33,0.24
2014-10-15,71.1,64.0,54.7,66.7,58.8,48.0,100,84,56,30.00,29.83,21,4,33,1.83
2014-10-16,71.1,58.7,53.1,64.5,49.9,30.8,100,77,25,29.88,29.77,5,1,8,0.06
2014-10-17,77.0,60.1,49.5,52.9,35.2,9.2,97,51,10,29.90,29.72,11,2,19,0.01
2014-10-18,59.9,54.8,48.7,47.7,28.4,5.8,72,38,12,29.93,29.67,22,5,28,0.05
2014-10-19,58.8,47.8,37.4,24.3,6.1,-9.4,48,21,10,30.15,29.92,26,9,35,0.00
2014-10-20,62.2,48.4,35.4,36.5,17.5,-0.5,73,38,10,30.14,29.95,8,1,12,0.00
2014-10-21,67.8,53.4,48.6,48.9,38.7,7.5,88,64,10,30.00,29.86,6,1,13,0.60
2014-10-22,57.4,51.6,49.8,45.6,33.8,20.9,83,54,24,30.08,29.96,24,8,38,0.00
2014-10-23,63.0,55.2,49.1,26.0,15.1,-0.2,39,23,10,30.05,29.93,25,12,37,0.00
2014-10-24,66.0,54.6,43.7,28.1,13.5,-2.6,44,22,10,30.08,29.96,17,7,26,0.00
2014-10-25,74.8,56.9,38.5,35.9,18.5,4.2,72,30,10,30.02,29.77,13,4,22,0.00
2014-10-26,66.4,58.3,45.3,14.2,2.1,-8.1,14,10,10,30.00,29.75,23,8,33,0.00
2014-10-27,79.3,55.4,35.1,18.1,7.0,-9.0,41,16,10,30.12,29.99,11,2,14,0.00
2014-10-28,85.6,63.4,49.3,30.9,18.4,-2.9,38,19,10,30.08,29.95,9,1,16,0.00
2014-10-29,68.2,55.9,41.2,47.9,31.2,0.5,74,44,10,30.08,29.97,17,2,21,0.30
2014-10-30,53.4,46.1,37.0,28.7,16.6,-3.1,59,34,10,30.14,30.07,11,2,14,0.00
2014-10-31,54.9,46.0,37.0,34.5,19.2,-2.7,71,41,10,30.07,29.87,9,2,14,0.00
2014-11-1,49.1,44.1,39.9,27.7,15.7,-0.2,53,33,16,30.09,29.85,24,7,34,0.00
2014-11-2,48.9,41.5,37.0,8.7,-5.0,-14.0,30,14,10,30.28,30.02,27,14,45,0.00
2014-11-3,64.6,47.0,32.4,6.5,-6.5,-17.8,15,10,10,30.35,30.21,16,3,26,0.00
2014-11-4,76.8,57.0,41.2,16.2,1.1,-11.2,15,10,10,30.26,30.08,9,2,16,0.00
2014-11-5,64.4,57.4,48.4,26.4,6.7,-3.1,42,14,10,30.26,30.07,14,3,24,0.01
2014-11-6,68.7,51.7,45.1,49.8,32.6,2.0,89,56,10,30.15,29.70,19,3,27,0.39
2014-11-7,47.7,43.3,36.5,30.4,8.0,-10.2,53,25,10,30.08,29.76,30,10,39,0.00
2014-11-8,49.5,40.0,27.0,17.9,-0.4,-9.7,50,22,10,30.09,29.91,11,3,17,0.00
2014-11-9,61.0,46.4,34.2,13.7,2.7,-10.4,35,18,10,30.06,29.91,14,3,21,0.00
2014-11-10,70.2,49.6,32.2,26.7,7.9,-3.3,63,24,10,30.19,30.03,16,4,26,0.00
2014-11-11,73.9,54.9,36.9,37.3,18.0,2.1,71,29,10,30.11,29.91,12,3,19,0.00
2014-11-12,54.1,46.0,35.1,34.6,11.2,-9.7,63,29,10,30.20,29.89,23,6,30,0.00
2014-11-13,42.4,34.9,25.7,17.0,2.3,-11.6,49,27,10,30.19,30.08,17,3,24,0.00
2014-11-14,38.7,31.4,24.6,6.6,-8.4,-18.7,37,18,10,30.34,30.08,21,8,29,0.00
2014-11-15,46.0,30.6,20.5,3.9,-8.6,-21.6,39,20,10,30.46,30.30,10,2,14,0.00
2014-11-16,41.4,35.8,26.4,24.3,-8.9,-20.4,65,17,10,30.31,29.98,8,3,15,0.07
2014-11-17,42.6,37.4,27.7,36.1,21.3,-21.7,82,57,10,29.99,29.54,20,5,33,0.34
2014-11-18,27.5,21.4,17.1,-7.8,-25.3,-29.3,30,11,10,30.23,29.83,22,10,33,0.00
2014-11-19,38.7,25.6,15.8,-14.8,-22.8,-30.3,22,10,10,30.30,29.97,15,5,25,0.00
2014-11-20,43.9,34.3,26.1,-9.4,-16.5,-23.0,12,10,10,30.14,29.93,23,7,31,0.00
2014-11-21,35.2,25.5,16.0,-16.0,-22.4,-28.9,21,11,10,30.51,30.14,21,7,29,0.00
2014-11-22,49.5,27.5,12.6,-4.8,-12.7,-23.3,35,19,10,30.48,30.22,8,2,11,0.00
2014-11-23,63.5,46.8,33.3,43.6,-1.2,-17.3,77,17,10,30.20,29.75,14,4,26,0.19
2014-11-24,73.0,61.9,51.1,53.4,20.1,3.1,91,27,10,29.85,29.60,16,5,27,0.14
2014-11-25,60.3,47.7,36.9,7.6,-2.8,-10.8,29,12,10,30.20,29.85,17,5,27,0.00
2014-11-26,41.7,34.8,32.2,30.5,19.6,-4.2,83,61,15,30.19,29.91,14,4,20,0.09
2014-11-27,45.3,34.2,29.5,31.6,15.9,-7.5,77,51,18,30.17,29.93,20,3,28,0.15
2014-11-28,34.0,28.2,20.5,14.2,-7.9,-23.1,55,23,10,30.32,30.17,17,6,26,0.00
2014-11-29,43.5,33.3,22.6,12.3,-5.3,-16.4,55,23,10,30.25,30.07,12,3,19,0.01
2014-11-30,56.7,45.5,35.6,22.8,6.1,-11.9,37,21,10,30.10,30.01,6,1,8,0.00
2014-12-1,63.1,49.7,36.1,35.7,19.5,-15.1,44,31,10,30.51,30.08,24,5,32,0.04
2014-12-2,36.1,32.8,30.7,26.0,5.7,-17.5,75,39,10,30.55,30.25,10,2,15,0.05
2014-12-3,53.6,38.1,30.7,43.3,20.2,-5.1,86,56,17,30.31,30.03,21,3,29,0.04
2014-12-4,40.3,35.8,30.7,8.1,-6.3,-15.0,33,17,10,30.44,30.30,12,2,17,0.00
2014-12-5,38.3,35.6,34.5,30.8,10.0,-16.1,80,42,10,30.46,30.26,10,3,15,0.21
2014-12-6,43.7,38.6,34.9,37.1,32.1,10.8,87,78,33,30.30,30.04,26,5,42,0.61
2014-12-7,45.5,36.0,29.7,11.3,-7.4,-20.1,34,16,10,30.57,30.30,30,8,42,0.00
2014-12-8,34.3,30.1,26.1,20.1,-6.7,-22.7,68,25,10,30.56,30.29,13,3,20,0.00
2014-12-9,40.6,33.9,29.3,32.3,24.3,14.2,81,68,35,30.29,29.92,13,2,22,0.09
2014-12-10,40.5,37.3,32.2,15.2,7.0,-1.9,36,28,20,29.92,29.80,26,12,35,0.00
2014-12-11,35.1,32.0,29.1,3.4,-7.8,-17.9,29,18,10,29.95,29.80,23,10,33,0.00
2014-12-12,35.1,33.5,28.9,3.4,-6.5,-16.4,31,18,10,30.12,29.95,22,7,30,0.00
2014-12-13,41.0,34.7,32.4,6.7,0.3,-11.6,31,23,10,30.17,30.05,15,6,23,0.00
2014-12-14,47.8,46.1,39.2,17.3,14.7,9.6,35,28,23,30.04,29.95,27,10,36,0.00
2014-12-15,65.7,48.6,38.5,28.3,16.0,-0.4,59,30,10,30.08,29.99,17,4,20,0.00
2014-12-16,43.5,38.2,31.5,35.9,31.1,23.8,83,75,57,30.03,29.85,14,1,20,0.15
2014-12-17,45.9,40.3,33.1,39.0,9.4,-10.8,87,32,10,30.08,29.90,20,7,27,0.01
2014-12-18,34.2,31.5,30.0,-1.6,-7.8,-19.6,24,18,10,30.16,30.04,25,10,34,0.00
2014-12-19,37.0,31.7,27.9,-0.6,-6.7,-15.8,25,19,10,30.29,30.07,24,10,31,0.00
2014-12-20,40.1,27.6,18.7,4.7,-5.0,-19.2,46,26,10,30.32,30.19,8,1,10,0.00
2014-12-21,47.8,31.6,23.7,9.9,-4.7,-18.0,45,24,10,30.35,30.24,9,1,13,0.00
2014-12-22,31.1,31.1,31.1,-12.4,-12.4,-12.4,14,14,14,30.28,30.28,1,1,3,0.00
2014-12-23,31.1,31.1,31.1,-12.4,-12.4,-12.4,14,14,14,30.28,30.28,1,1,3,0.00
2014-12-24,31.1,31.1,31.1,-12.4,-12.4,-12.4,14,14,14,30.28,30.28,1,1,3,0.00
2014-12-25,31.1,31.1,31.1,-12.4,-12.4,-12.4,14,14,14,30.28,30.28,1,1,3,0.00
2014-12-26,31.1,31.1,31.1,-12.4,-12.4,-12.4,14,14,14,30.28,30.28,1,1,3,0.00
2014-12-27,31.1,31.1,31.1,-12.4,-12.4,-12.4,14,14,14,30.28,30.28,1,1,3,0.00
2014-12-28,39.9,31.8,31.1,5.0,-11.0,-12.4,24,15,14,30.28,30.14,7,1,8,0.67
2014-12-29,51.6,37.2,28.0,8.7,-6.3,-16.9,40,16,10,30.28,30.13,13,3,24,0.00
2014-12-30,43.2,29.9,21.2,-7.0,-18.7,-26.2,22,11,10,30.43,30.26,16,5,23,0.00
2014-12-31,34.3,26.5,20.7,-16.5,-22.3,-27.2,16,10,10,30.38,30.18,14,6,24,0.00
2015-1-1,43.9,33.3,22.5,-9.1,-17.4,-25.9,10,10,10,30.19,29.99,17,6,32,0.00
2015-1-2,45.7,34.5,24.4,-1.3,-13.7,-20.7,31,12,10,30.43,30.04,16,5,25,0.00